User: anonymous   Login
Location: Unspecified
(0.0000°N, 0.0000°E)
Time: 06:49:00
(UTC+00:00)
Language:

APRIZESAT 10 - Orbit

View from above orbital plane
View from above orbital plane
View from above satellite
View from above satellite

Ground track
Ground track

The orbit data is extracted from the following two-line orbital elements,

1 40019U 14033K   18267.85928558 +.00000012 +00000-0 +10703-4 0  9997
2 40019 097.7724 122.5057 0082952 283.7638 075.4344 14.66955292228342
Epoch (UTC): 24 September 2018 20:37:22
Eccentricity: 0.0082952
inclination: 97.7724°
perigee height: 612 km
apogee height: 729 km
right ascension of ascending node: 122.5057°
argument of perigee: 283.7638°
revolutions per day: 14.66955292
mean anomaly at epoch: 75.4344°
orbit number at epoch: 22834

The dashed part of the orbit path shows where the satellite is in the earth's shadow,  

DLR